{"data":{"norad_id":64689,"intl_designator":"2025-139AB","name":"STARLINK-34538","alt_names":[],"object_type":"PAYLOAD","status":"ACTIVE","operator":null,"country":"US","launch_date":"2025-06-28","launch_site_code":"AFETR","launch_vehicle":null,"mission":null,"orbit_class":"UNKNOWN","rcs_meters":null,"size_class":null,"mass_kg":null,"dimensions":null,"purposes":["comms"],"wikipedia_slug":null,"has_3d_model":false,"image_url":null,"decayed_at":null,"tle_current":{"epoch":"2026-05-25T05:20:56.107104Z","epoch_age_seconds":49693,"freshness":"FRESH","line1":"1 64689U 25139AB  26145.22287161  .00021318  00000+0  64015-3 0  9993","line2":"2 64689  53.1601 130.6997 0000951  86.9623 273.1488 15.34405891 52016","mean_motion":15.34405891,"eccentricity":9.51e-5,"inclination_deg":53.1601,"raan_deg":130.6997,"arg_perigee_deg":86.9623,"mean_anomaly_deg":273.1488,"bstar":0.00064015,"rev_number":5201,"period_min":93.847397774361,"perigee_km":462.03516872794,"apogee_km":463.33629321137,"semimajor_km":6840.8227309697,"source":"CELESTRAK","updated_at":"2026-05-25T13:38:20.509118Z"}}}